This is the latest recevied weather packets stored in our database for station/object KN4AN. If no packets are shown the sender has not sent any weather packets the latest 10 day(s).
| Time | Temp. | Humidity | Pressure | Rain* | Wind** | Luminosity | Snow |
|---|---|---|---|---|---|---|---|
| 1788042680 | 28.89° C | 58% | 1021.3 hPa | 0 mm | - | 45 W/m² | - |
| 1788042379 | 28.89° C | 57% | 1021.3 hPa | 0 mm | - | 47 W/m² | - |
| 1788042074 | 29.44° C | 57% | 1021.4 hPa | 0 mm | - | 49 W/m² | - |
| 1788041769 | 29.44° C | 55% | 1021.3 hPa | 0 mm | - | 51 W/m² | - |
| 1788041465 | 30° C | 55% | 1021.3 hPa | 0 mm | - | 104 W/m² | - |
| 1788041164 | 30° C | 55% | 1021.3 hPa | 0 mm | - | 109 W/m² | - |
| 1788040864 | 30° C | 55% | 1021.4 hPa | 0 mm | - | 118 W/m² | - |
| 1788040562 | 30° C | 55% | 1021.4 hPa | 0 mm | - | 122 W/m² | - |
| 1788040258 | 30° C | 55% | 1021.5 hPa | 0 mm | - | 137 W/m² | - |
| 1788039957 | 30° C | 54% | 1021.3 hPa | 0 mm | - | 154 W/m² | - |
| 1788039653 | 30.56° C | 54% | 1021.5 hPa | 0 mm | - | 165 W/m² | - |
| 1788039348 | 30.56° C | 53% | 1021.4 hPa | 0 mm | - | 174 W/m² | - |
| 1788039043 | 30.56° C | 54% | 1021.4 hPa | 0 mm | - | 186 W/m² | - |
| 1788038738 | 30.56° C | 54% | 1021.2 hPa | 0 mm | - | 196 W/m² | - |
| 1788038433 | 30.56° C | 54% | 1021.5 hPa | 0 mm | - | 208 W/m² | - |
| 1788038133 | 30.56° C | 54% | 1021.3 hPa | 0 mm | - | 220 W/m² | - |
| 1788037832 | 30.56° C | 54% | 1021.2 hPa | 0 mm | - | 231 W/m² | - |
| 1788037527 | 30.56° C | 54% | 1021.3 hPa | 0 mm | - | 247 W/m² | - |
| 1788037223 | 30.56° C | 54% | 1021.3 hPa | 0 mm | - | 262 W/m² | - |
| 1788036921 | 31.11° C | 54% | 1021.3 hPa | 0 mm | - | 275 W/m² | - |
| 1788036619 | 31.11° C | 53% | 1021.4 hPa | 0 mm | - | 294 W/m² | - |
| 1788036314 | 30.56° C | 53% | 1021.4 hPa | 0 mm | - | 308 W/m² | - |
| 1788036009 | 31.11° C | 52% | 1021.6 hPa | 0 mm | - | 325 W/m² | - |
| 1788035708 | 31.11° C | 51% | 1021.7 hPa | 0 mm | - | 355 W/m² | - |
| 1788035404 | 31.11° C | 52% | 1021.7 hPa | 0 mm | - | 382 W/m² | - |
* Rain latest hour (hover to see other rain measurements)
** Current wind speed in m/s (hover to see current wind gust speed)